STARLINK-1263, 45405

Orbit data source: Space-Track

STARLINK-1263, 45405 is a payload satellite owned by SpaceX/Seattle (US) in LEO that was launched on Wed, 18 Mar 2020 UTC via an FALCON 9 launch vehicle from the Air Force Eastern Test Range (AFETR). Payload-class satellites include a variety of spacecraft equipped with specific instruments for various scientific and technological missions. These include communications satellites like Starlink; space stations such as the ISS; scientific satellites like the Hubble; Earth observation satellites from companies like Planet Labs, Umbra, and HawkEye 360; GPS; miniature CubeSats for education and research; and military/defense satellites.

Loading next visibility...
Identifier
45405, 2020-019AX
Orbit
LEO
Country
Flag of USUS
Related business
Manufacturer
SpaceX/Seattle
Mission
Operational Commercial Communications
Bus & Motor
STARLINK, Unknown motor
Mass
260 kg wet, ~248 kg dry
Launch date (UTC)
2020-03-18 (6 years ago)
Launch vehicle
FALCON 9
Launch site
Air Force Eastern Test Range (AFETR)
Object type
Payload
Rocket body
Debris
Shape & HBR
Box + 1 Pan, 10.1 m
Radar Cross Section
13.562 m², Large (>1 m²)

Expand to show TLE details & history
Last TLE update: 8 hours ago

TLE from 8 hours ago
0 STARLINK-1263
1 45405U 20019AX  25312.75176832  .00003448  00000-0  25025-3 0  9998
2 45405  53.0541 319.5316 0001365  81.6832 278.4312 15.06404674311637
Epoch: 2025-11-08T18:02Z
TLE epoch observation values (Epoch: 2025-11-08T18:02:32.782Z)
Latitude
-0.00002°
Longitude
0.71812°
Altitude
547.938 km
Speed
7.589 km/s
True Right ascension
21h 18m 07s
True Declination
0° 00' 00"
Sunlit
Object was in daylight at epoch
Visualization orbit readout
Latitude
Unknown
Longitude
Unknown
Altitude
Unknown
Speed
Unknown
Apparent Right ascension
Unknown
Apparent Declination
Unknown
Sunlit
N/A
Visualization observer readout
Local Sidereal Time
21:47:46
Azimuth
Unknown
Elevation
Unknown
Doppler factor
Unknown
Orbital elements
Apogee altitude
548.413 km
Perigee altitude
546.523 km
Semi-major axis
6,925.605 km
Eccentricity
0.00014
Inclination
53.0541°
RAAN
319.5316°
Arg. of periapsis
81.6832°
True anomaly
278.41573°
Mean anomaly
278.4312°
Eccentric anomaly
278.42346°
Mean motion
3.76579 °/min
Orbital period
95.6 mins
BSTAR
0.00025025
Loading maneuver chart data...
Computing Atmospheric mass density...
Loading historical data...
Loading historical data...
Loading historical data...
Loading historical data...
Loading historical data...
Loading historical data...
Loading historical data...

Documentation

Showing up to 5 results
|